Regional Weather Roundup
Issued by NWS

Home | Current Version | Previous Version | Graphics & Text | Print | Product List | Glossary Off
Versions: 1 2 3 4 5 6 7 8 9 10 11 12 13 14 15 16 17 18 19 20 21 22 23 24 25 26 27 28 29 30 31 32 33 34 35 36 37 38 39 40 41 42 43 44 45 46 47 48 49 50

000
ASUS45 KBOI 210810
RWRID

IDAHO REGIONAL WEATHER ROUNDUP
NATIONAL WEATHER SERVICE BOISE ID
100 AM MST TUE NOV 21 2017

NOTE: "FAIR" INDICATES FEW OR NO CLOUDS BELOW 12000 FEET
WITH NO SIGNIFICANT WEATHER AND/OR OBSTRUCTIONS TO VISIBILITY

IDZ012-014-210900-
SOUTHWEST IDAHO


CITY           SKY/WX    TMP DP  RH WIND       PRES   REMARKS
BOISE          CLOUDY    47  42  83 SE9       30.13R
CALDWELL       CLOUDY    48  44  86 W3        30.14R
MOUNTAIN HOME  LGT RAIN  44  44 100 E6        30.14R
$$

IDZ016-017-210900-
SOUTHCENTRAL IDAHO


CITY           SKY/WX    TMP DP  RH WIND       PRES   REMARKS
BURLEY         CLOUDY    46  42  86 SW9       30.13R
JEROME         CLOUDY    44  41  89 S5        30.15R
TWIN FALLS     CLOUDY    45  43  93 SW6       30.16R
$$

IDZ019>023-210900-
SOUTHEAST IDAHO


CITY           SKY/WX    TMP DP  RH WIND       PRES   REMARKS
IDAHO FALLS    CLOUDY    42  39  89 SW17G28   30.09R
POCATELLO      CLOUDY    46  40  79 SW15      30.14R
REXBURG        CLOUDY    38  36  92 CALM      30.10R
$$

IDZ006-010-011-018-031-032-210900-
CENTRAL IDAHO MOUNTAINS


CITY           SKY/WX    TMP DP  RH WIND       PRES   REMARKS
MCCALL         PTCLDY    34  33  96 CALM      30.12R FOG
HAILEY         PTCLDY    32  32 100 NW6       30.15R WCI  26
STANLEY          N/A     36  35  96 CALM      30.15R
SALMON         CLOUDY    33  32  96 SE3       30.12R
CHALLIS        PTCLDY    33  31  92 W3        30.08R
$$

IDZ002-004-006-007-026-210900-
NORTHERN IDAHO


CITY           SKY/WX    TMP DP  RH WIND       PRES   REMARKS
LEWISTON       MOCLDY    41  38  89 CALM      30.14R
LOWELL           N/A     39  38  96 N3        30.21R
COEUR D`ALENE  CLOUDY    40  37  89 CALM      30.11R
MULLAN PASS    CLOUDY    29  26  89 VRB5      30.05R WCI  24
$$



USA.gov is the U.S. government's official web portal to all federal, state and local government web resources and services.